| time (UTC) | temp F | wind direction | speed MPH | gust MPH | rain 1hr in | rain 24hr in | rain mn in | humidity % | barometer mb |
| 20260901020037 | 71 | 180 | 3.0 | 4.0 | 0.00 | 0.00 | 0.00 | 53 | 1009.8 |
| 20260901014611 | 76 | 180 | 3.0 | 5.0 | 0.00 | 0.00 | 0.00 | 47 | 1009.8 |
| 20260901013150 | 82 | 204 | 2.0 | 4.0 | 0.00 | 0.00 | 0.00 | 36 | 1009.7 |
| 20260901011534 | 83 | 257 | 1.0 | 3.0 | 0.00 | 0.00 | 0.00 | 33 | 1009.8 |
| 20260901010035 | 82 | 294 | 1.0 | 4.0 | 0.00 | 0.00 | 0.00 | 30 | 1009.8 |
| 20260901004535 | 83 | 354 | 2.0 | 5.0 | 0.00 | 0.00 | 0.00 | 29 | 1009.9 |
| 20260901003039 | 83 | 350 | 2.0 | 4.0 | 0.00 | 0.00 | 0.00 | 27 | 1010.0 |
| 20260901001534 | 83 | 348 | 1.0 | 5.0 | 0.00 | 0.00 | 0.00 | 26 | 1010.2 |
| 20260901000034 | 82 | 338 | 2.0 | 6.0 | 0.00 | 0.00 | 0.00 | 26 | 1010.3 |
| 20260831234653 | 82 | 274 | 1.0 | 4.0 | 0.00 | 0.00 | 0.00 | 26 | 1010.4 |
| 20260831233035 | 83 | 32 | 4.0 | 10.0 | 0.00 | 0.00 | 0.00 | 25 | 1010.5 |
| 20260831231642 | 83 | 29 | 2.0 | 7.0 | 0.00 | 0.00 | 0.00 | 26 | 1010.7 |
| 20260831230032 | 83 | 26 | 4.0 | 11.0 | 0.00 | 0.00 | 0.00 | 26 | 1010.9 |
| 20260831224538 | 82 | 30 | 6.0 | 12.0 | 0.00 | 0.00 | 0.00 | 26 | 1011.1 |
| 20260831223109 | 82 | 30 | 6.0 | 13.0 | 0.00 | 0.00 | 0.00 | 27 | 1011.3 |
| 20260831221536 | 81 | 38 | 3.0 | 11.0 | 0.00 | 0.00 | 0.00 | 28 | 1011.5 |
| 20260831220035 | 81 | 34 | 4.0 | 11.0 | 0.00 | 0.00 | 0.00 | 29 | 1011.7 |
| 20260831213034 | 80 | 29 | 2.0 | 6.0 | 0.00 | 0.00 | 0.00 | 32 | 1012.2 |
| 20260831211642 | 79 | 227 | 2.0 | 9.0 | 0.00 | 0.00 | 0.00 | 33 | 1012.3 |
| 20260831210034 | 78 | 306 | 2.0 | 8.0 | 0.00 | 0.00 | 0.00 | 33 | 1012.5 |
| 20260831204534 | 78 | 33 | 4.0 | 13.0 | 0.00 | 0.00 | 0.00 | 34 | 1012.6 |
| 20260831200035 | 77 | 40 | 5.0 | 14.0 | 0.00 | 0.00 | 0.00 | 34 | 1013.4 |
| 20260831194536 | 76 | 40 | 5.0 | 15.0 | 0.00 | 0.00 | 0.00 | 35 | 1013.6 |
| 20260831193035 | 75 | 27 | 7.0 | 16.0 | 0.00 | 0.00 | 0.00 | 36 | 1013.8 |
| 20260831191537 | 75 | 50 | 6.0 | 18.0 | 0.00 | 0.00 | 0.00 | 36 | 1014.1 |
| 20260831190034 | 74 | 32 | 5.0 | 14.0 | 0.00 | 0.00 | 0.00 | 38 | 1014.3 |
| 20260831184532 | 73 | 28 | 6.0 | 14.0 | 0.00 | 0.00 | 0.00 | 41 | 1014.6 |
| 20260831183109 | 71 | 26 | 5.0 | 14.0 | 0.00 | 0.00 | 0.00 | 50 | 1014.9 |
| 20260831181537 | 68 | 351 | 4.0 | 9.0 | 0.00 | 0.00 | 0.00 | 59 | 1015.3 |
| 20260831180035 | 66 | 321 | 4.0 | 8.0 | 0.00 | 0.00 | 0.00 | 61 | 1015.5 |
| 20260831174536 | 65 | 316 | 4.0 | 7.0 | 0.00 | 0.00 | 0.00 | 62 | 1015.6 |
| 20260831173036 | 64 | 305 | 3.0 | 7.0 | 0.00 | 0.00 | 0.00 | 61 | 1015.7 |
| 20260831171533 | 64 | 305 | 1.0 | 5.0 | 0.00 | 0.00 | 0.00 | 60 | 1015.9 |
| 20260831164612 | 64 | 343 | 1.0 | 4.0 | 0.00 | 0.00 | 0.00 | 61 | 1016.1 |
| 20260831163109 | 64 | 4 | 1.0 | 4.0 | 0.00 | 0.00 | 0.00 | 58 | 1016.2 |
| 20260831161535 | 63 | 360 | 1.0 | 3.0 | 0.00 | 0.00 | 0.00 | 63 | 1016.4 |
| 20260831160032 | 62 | 360 | 0.0 | 3.0 | 0.00 | 0.00 | 0.00 | 66 | 1016.5 |
| 20260831154537 | 59 | 360 | 1.0 | 3.0 | 0.00 | 0.00 | 0.00 | 71 | 1016.5 |
| 20260831153033 | 57 | 338 | 1.0 | 3.0 | 0.00 | 0.00 | 0.00 | 79 | 1016.5 |
| 20260831151536 | 53 | 209 | 0.0 | 0.0 | 0.00 | 0.00 | 0.00 | 86 | 1016.5 |
| 20260831150035 | 50 | 180 | 0.0 | 0.0 | 0.00 | 0.00 | 0.00 | 88 | 1016.4 |
| 20260831144535 | 48 | 180 | 0.0 | 0.0 | 0.00 | 0.00 | 0.00 | 93 | 1016.4 |
| 20260831143033 | 47 | 180 | 0.0 | 0.0 | 0.00 | 0.00 | 0.00 | 93 | 1016.3 |
| 20260831141537 | 47 | 180 | 1.0 | 3.0 | 0.00 | 0.00 | 0.00 | 93 | 1016.2 |
| 20260831140036 | 47 | 180 | 2.0 | 3.0 | 0.00 | 0.00 | 0.00 | 92 | 1016.1 |
| 20260831134537 | 47 | 180 | 0.0 | 2.0 | 0.00 | 0.00 | 0.00 | 92 | 1016.0 |
| 20260831133038 | 47 | 180 | 2.0 | 3.0 | 0.00 | 0.00 | 0.00 | 93 | 1016.1 |
| 20260831131533 | 46 | 180 | 2.0 | 4.0 | 0.00 | 0.00 | 0.00 | 94 | 1016.1 |
| 20260831130035 | 46 | 194 | 2.0 | 3.0 | 0.00 | 0.00 | 0.00 | 94 | 1016.1 |
| 20260831123033 | 46 | 180 | 2.0 | 4.0 | 0.00 | 0.00 | 0.00 | 93 | 1016.0 |
| 20260831121532 | 45 | 180 | 2.0 | 3.0 | 0.00 | 0.00 | 0.00 | 92 | 1015.9 |
| 20260831120035 | 46 | 180 | 2.0 | 3.0 | 0.00 | 0.00 | 0.00 | 91 | 1016.1 |
| 20260831114535 | 46 | 180 | 2.0 | 3.0 | 0.00 | 0.00 | 0.00 | 91 | 1016.1 |
| 20260831111531 | 47 | 180 | 1.0 | 3.0 | 0.00 | 0.00 | 0.00 | 90 | 1016.2 |
| 20260831110035 | 47 | 154 | 0.0 | 2.0 | 0.00 | 0.00 | 0.00 | 89 | 1016.2 |
| 20260831104649 | 48 | 180 | 2.0 | 3.0 | 0.00 | 0.00 | 0.00 | 87 | 1016.2 |
| 20260831103034 | 49 | 180 | 0.0 | 2.0 | 0.00 | 0.00 | 0.00 | 85 | 1016.3 |
| 20260831101609 | 49 | 180 | 0.0 | 2.0 | 0.00 | 0.00 | 0.00 | 83 | 1016.3 |
| 20260831100033 | 50 | 180 | 2.0 | 3.0 | 0.00 | 0.00 | 0.00 | 81 | 1016.4 |
| 20260831094537 | 51 | 182 | 2.0 | 4.0 | 0.00 | 0.00 | 0.00 | 79 | 1016.6 |
| 20260831093034 | 51 | 186 | 3.0 | 5.0 | 0.00 | 0.00 | 0.00 | 79 | 1016.6 |
| 20260831091535 | 51 | 180 | 3.0 | 5.0 | 0.00 | 0.00 | 0.00 | 80 | 1016.7 |
| 20260831090034 | 52 | 180 | 1.0 | 2.0 | 0.00 | 0.00 | 0.00 | 77 | 1016.7 |
| 20260831081532 | 51 | 180 | 4.0 | 7.0 | 0.00 | 0.00 | 0.00 | 84 | 1017.1 |
| 20260831080033 | 51 | 180 | 3.0 | 4.0 | 0.00 | 0.00 | 0.00 | 81 | 1017.0 |
| 20260831074536 | 52 | 180 | 3.0 | 4.0 | 0.00 | 0.00 | 0.00 | 79 | 1017.2 |
| 20260831073152 | 51 | 180 | 2.0 | 4.0 | 0.00 | 0.00 | 0.00 | 80 | 1017.2 |
| 20260831071535 | 51 | 180 | 3.0 | 5.0 | 0.00 | 0.00 | 0.00 | 81 | 1017.3 |
| 20260831070031 | 51 | 162 | 2.0 | 3.0 | 0.00 | 0.00 | 0.00 | 81 | 1017.3 |
| 20260831064537 | 53 | 180 | 1.0 | 3.0 | 0.00 | 0.00 | 0.00 | 75 | 1017.4 |
| 20260831061535 | 55 | 165 | 1.0 | 3.0 | 0.00 | 0.00 | 0.00 | 71 | 1017.5 |
| 20260831060038 | 57 | 170 | 1.0 | 4.0 | 0.00 | 0.00 | 0.00 | 67 | 1017.5 |
| 20260831053036 | 59 | 70 | 0.0 | 4.0 | 0.00 | 0.00 | 0.00 | 62 | 1017.7 |
| 20260831051536 | 60 | 129 | 2.0 | 7.0 | 0.00 | 0.00 | 0.00 | 61 | 1017.7 |
| 20260831050036 | 59 | 188 | 4.0 | 7.0 | 0.00 | 0.00 | 0.00 | 63 | 1017.7 |
| 20260831044532 | 59 | 186 | 4.0 | 7.0 | 0.00 | 0.00 | 0.00 | 63 | 1017.7 |
| 20260831043034 | 60 | 195 | 4.0 | 6.0 | 0.00 | 0.00 | 0.00 | 62 | 1017.7 |
| 20260831041537 | 61 | 200 | 5.0 | 7.0 | 0.00 | 0.00 | 0.00 | 60 | 1017.8 |
| 20260831034534 | 61 | 187 | 4.0 | 7.0 | 0.00 | 0.00 | 0.00 | 61 | 1017.6 |
| 20260831033035 | 60 | 179 | 2.0 | 6.0 | 0.00 | 0.00 | 0.00 | 63 | 1017.5 |
| 20260831031536 | 61 | 138 | 0.0 | 3.0 | 0.00 | 0.00 | 0.00 | 64 | 1017.5 |
| 20260831030035 | 62 | 178 | 2.0 | 4.0 | 0.00 | 0.00 | 0.00 | 65 | 1017.4 |
| 20260831024536 | 66 | 202 | 0.0 | 3.0 | 0.00 | 0.00 | 0.00 | 61 | 1017.4 |
| 20260831023036 | 70 | 206 | 2.0 | 3.0 | 0.00 | 0.00 | 0.00 | 56 | 1017.3 |